This is the latest recevied weather packets stored in our database for station/object KG5VSR. If no packets are shown the sender has not sent any weather packets the latest 10 day(s).
| Time | Temp. | Humidity | Pressure | Rain* | Wind** | Luminosity | Snow |
|---|---|---|---|---|---|---|---|
| 1777570581 | 16.11° C | 99% | 1014.7 hPa | 1.27 mm | - | 74 W/m² | - |
| 1777568777 | 16.11° C | 97% | 1016.6 hPa | 0 mm | - | 104 W/m² | - |
| 1777566972 | 16.11° C | 98% | 1016.7 hPa | 0 mm | - | 65 W/m² | - |
| 1777565170 | 16.67° C | 97% | 1016.1 hPa | 1.78 mm | - | 142 W/m² | - |
| 1777563368 | 16.67° C | 91% | 1016.7 hPa | 0 mm | - | 31 W/m² | - |
| 1777561567 | 16.67° C | 90% | 1015.7 hPa | 0 mm | - | 42 W/m² | - |
| 1777559767 | 16.67° C | 90% | 1015.3 hPa | 0 mm | - | 74 W/m² | - |
| 1777557967 | 16.67° C | 91% | 1014.6 hPa | 0 mm | - | 99 W/m² | - |
| 1777556167 | 16.67° C | 91% | 1014.6 hPa | 0 mm | - | 95 W/m² | - |
| 1777554363 | 16.11° C | 93% | 1014.4 hPa | 0 mm | - | 64 W/m² | - |
| 1777552563 | 16.11° C | 92% | 1014.5 hPa | 0 mm | - | 65 W/m² | - |
| 1777550762 | 15.56° C | 94% | 1014.4 hPa | 0 mm | - | 13 W/m² | - |
| 1777548963 | 15.56° C | 95% | 1014.4 hPa | 0 mm | - | 0 W/m² | - |
| 1777547161 | 15.56° C | 94% | 1014.2 hPa | 0 mm | - | 0 W/m² | - |
| 1777545360 | 15.56° C | 94% | 1014.2 hPa | 0 mm | - | 0 W/m² | - |
| 1777543557 | 16.11° C | 92% | 1014.2 hPa | 0 mm | - | 0 W/m² | - |
| 1777541754 | 16.67° C | 92% | 1014.2 hPa | 0 mm | - | 0 W/m² | - |
| 1777539950 | 16.67° C | 92% | 1014.1 hPa | 0 mm | - | 0 W/m² | - |
| 1777538144 | 17.22° C | 91% | 1014 hPa | 0 mm | - | 0 W/m² | - |
| 1777536340 | 17.22° C | 90% | 1014.2 hPa | 0 mm | - | 0 W/m² | - |
| 1777534537 | 17.78° C | 88% | 1014.2 hPa | 0 mm | - | 0 W/m² | - |
| 1777532737 | 17.78° C | 89% | 1014.5 hPa | 0 mm | - | 0 W/m² | - |
| 1777530934 | 17.78° C | 89% | 1015.3 hPa | 0 mm | - | 0 W/m² | - |
| 1777529132 | 17.78° C | 88% | 1015.2 hPa | 0 mm | - | 0 W/m² | - |
| 1777527329 | 17.78° C | 88% | 1015.3 hPa | 0 mm | - | 0 W/m² | - |
* Rain latest hour (hover to see other rain measurements)
** Current wind speed in m/s (hover to see current wind gust speed)